McCook, NE

7:53 PM CDT on May 21, 2018 (GMT -0500)
McCook Municipal

Weather History for KMCK - October, 2013

Change the Weather History Date:

Sunday, October 13, 2013

  Actual Average Record
Temperature  
Mean Temperature 54 °F 52 °F  
Max Temperature 67 °F 68 °F 91 °F (1950)
Min Temperature 40 °F 37 °F 22 °F (1986)
Degree Days  
Heating Degree Days 12    
Growing Degree Days 4 (Base 50)    
Moisture  
Dew Point 37 °F    
Average Humidity 53    
Maximum Humidity 72    
Minimum Humidity 28    
Precipitation  
Precipitation 0.00 in 0.06 in 0.47 in (1960)
Month to date precipitation 0.36 0.76  
Year to date precipitation 11.88 19.91  
Sea Level Pressure  
Sea Level Pressure 30.21 in    
Wind  
Wind Speed 12 mph (SE)    
Max Wind Speed 26 mph    
Max Gust Speed 34 mph    
Visibility 10 miles    
Events Thunderstorm    
T = Trace of Precipitation, MM = Missing Value Source: NWS Daily Summary

Daily Weather History Graph

Daily Weather History Graph

Search for Another Location

Airport or City:

Astronomy

Oct. 13, 2013 Rise Set
Actual Time 7:51 AM CDT 7:05 PM CDT
Civil Twilight 7:23 AM CDT 7:32 PM CDT
Nautical Twilight 6:52 AM CDT 8:03 PM CDT
Astronomical Twilight 6:20 AM CDT 8:35 PM CDT
Moon 3:58 PM CDT (10/13) 2:02 AM CDT (10/13)
Length of Visible Light 12h 08m
Length of Day
11h 13m
Waxing Gibbous, 69% of the Moon is Illuminated
Oct 13
Waxing Gibbous
Oct 18
Full
Oct 26
Last Quarter
Nov 3
New
Nov 9
First Quarter

Hourly Weather History & Observations

Time (CDT) Temp. Windchill Dew Point Humidity Pressure Visibility Wind Dir Wind Speed Gust Speed Precip Events Conditions
12:53 AM 50.0 °F - 34.0 °F 54% 30.27 in 10.0 mi SSE 9.2 mph - N/A   Clear
1:53 AM 46.9 °F - 33.1 °F 59% 30.28 in 10.0 mi SSE 8.1 mph - N/A   Clear
2:53 AM 45.0 °F 41.2 °F 33.1 °F 63% 30.28 in 10.0 mi SE 6.9 mph - N/A   Clear
3:53 AM 43.0 °F 39.5 °F 33.1 °F 68% 30.27 in 10.0 mi SSE 5.8 mph - N/A   Clear
4:53 AM 44.1 °F 40.8 °F 33.1 °F 65% 30.27 in 10.0 mi SSE 5.8 mph - N/A   Clear
5:53 AM 42.1 °F 39.2 °F 33.1 °F 70% 30.28 in 10.0 mi SE 4.6 mph - N/A   Clear
6:53 AM 43.0 °F 38.2 °F 33.1 °F 68% 30.30 in 10.0 mi SE 8.1 mph - N/A   Clear
7:53 AM 41.0 °F 37.1 °F 32.0 °F 70% 30.32 in 10.0 mi ESE 5.8 mph - N/A   Clear
8:53 AM 44.1 °F 42.5 °F 34.0 °F 68% 30.35 in 10.0 mi East 3.5 mph - N/A   Clear
9:53 AM 52.0 °F - 35.1 °F 53% 30.35 in 10.0 mi SSE 10.4 mph - N/A   Clear
10:53 AM 59.0 °F - 36.0 °F 42% 30.33 in 10.0 mi South 18.4 mph 23.0 mph N/A   Clear
11:53 AM 62.1 °F - 34.0 °F 35% 30.30 in 10.0 mi SSE 20.7 mph 29.9 mph N/A   Clear
12:53 PM 62.1 °F - 32.0 °F 32% 30.28 in 10.0 mi SSE 17.3 mph 31.1 mph N/A   Partly Cloudy
1:53 PM 66.0 °F - 32.0 °F 28% 30.24 in 8.0 mi SSE 26.5 mph 34.5 mph N/A   Overcast
2:53 PM 66.0 °F - 32.0 °F 28% 30.19 in 9.0 mi SSE 20.7 mph 31.1 mph N/A   Mostly Cloudy
3:53 PM 66.0 °F - 34.0 °F 30% 30.17 in 10.0 mi SE 15.0 mph 29.9 mph N/A   Overcast
4:53 PM 64.9 °F - 34.0 °F 32% 30.14 in 10.0 mi SE 25.3 mph 32.2 mph N/A   Overcast
5:53 PM 64.0 °F - 36.0 °F 35% 30.13 in 10.0 mi SE 21.9 mph 32.2 mph N/A   Overcast
6:53 PM 63.0 °F - 39.0 °F 41% 30.12 in 10.0 mi ESE 13.8 mph - N/A   Overcast
7:53 PM 62.1 °F - 41.0 °F 46% 30.14 in 10.0 mi SE 13.8 mph 23.0 mph N/A   Overcast
8:53 PM 61.0 °F - 42.1 °F 50% 30.12 in 10.0 mi SE 19.6 mph 25.3 mph N/A   Overcast
9:06 PM 59.0 °F - 44.6 °F 59% 30.12 in 10.0 mi SE 16.1 mph 25.3 mph N/A Thunderstorm Overcast
9:24 PM 59.0 °F - 44.6 °F 59% 30.12 in 10.0 mi SE 15.0 mph - N/A   Overcast
9:53 PM 59.0 °F - 45.0 °F 60% 30.11 in 10.0 mi SE 18.4 mph 26.5 mph N/A   Mostly Cloudy
10:53 PM 59.0 °F - 46.9 °F 64% 30.09 in 10.0 mi North - - N/A   Overcast
11:26 PM 57.2 °F - 48.2 °F 72% 30.11 in 10.0 mi SE 15.0 mph 23.0 mph N/A   Overcast
11:53 PM 57.9 °F - 48.0 °F 70% 30.08 in 10.0 mi SE 11.5 mph - N/A   Overcast